Weather History for Imperial, CA

Change the Weather History Date:

Thursday, February 14, 2013

  Actual Average Record
Temperature  
Mean Temperature 59 °F -  
Max Temperature 77 °F 74 °F 88 °F (1957)
Min Temperature 41 °F 47 °F 32 °F (1966)
Degree Days  
Heating Degree Days 6    
Growing Degree Days 9 (Base 50)    
Moisture  
Dew Point 28 °F    
Average Humidity 35    
Maximum Humidity 57    
Minimum Humidity 15    
Precipitation  
Precipitation 0.00 in - - ()
Sea Level Pressure  
Sea Level Pressure 30.11 in    
Wind  
Wind Speed 4 mph (WNW)    
Max Wind Speed 9 mph    
Max Gust Speed -    
Visibility 10 miles    
Events      
Averages and records for this station are not official NWS values.
T = Trace of Precipitation, MM = Missing Value Source: NWS Daily Summary

Daily Weather History Graph

Daily Weather History Graph

Search for Another Location

Airport:

Trip Planner

Search our weather history database for the weather conditions in past years. The results will help you decide how hot, cold, wet, or windy it might be!

Date:

Astronomy

Feb. 14, 2013 Rise Set
Actual Time 6:26 AM PST 5:27 PM PST
Civil Twilight 6:00 AM PST 5:52 PM PST
Nautical Twilight 5:31 AM PST 6:21 PM PST
Astronomical Twilight 5:03 AM PST 6:50 PM PST
Moon 8:49 AM PST (2/14) 10:14 PM PST (2/14)
Length of Visible Light 11h 51m
Length of Day
11h 01m
Waxing Crescent, 22% of the Moon is Illuminated
Feb 14
Waxing Crescent
Feb 17
First Quarter
Feb 25
Full
Mar 4
Last Quarter
Mar 11
New

Hourly Weather History & Observations

Time (PST) Temp. Windchill Dew Point Humidity Pressure Visibility Wind Dir Wind Speed Gust Speed Precip Events Conditions
12:53 AM 45.0 °F 42.6 °F 24.1 °F 44% 30.12 in 10.0 mi West 4.6 mph - N/A   Clear
1:53 AM 45.0 °F - 24.1 °F 44% 30.12 in 10.0 mi Calm Calm - N/A   Clear
2:53 AM 43.0 °F 41.3 °F 25.0 °F 49% 30.11 in 10.0 mi West 3.5 mph - N/A   Clear
3:53 AM 41.0 °F 39.0 °F 27.0 °F 57% 30.10 in 10.0 mi WSW 3.5 mph - N/A   Clear
4:53 AM 42.1 °F 39.2 °F 26.1 °F 53% 30.12 in 10.0 mi WSW 4.6 mph - N/A   Clear
5:53 AM 43.0 °F 38.8 °F 26.1 °F 51% 30.12 in 10.0 mi West 6.9 mph - N/A   Clear
6:53 AM 45.0 °F 43.5 °F 25.0 °F 46% 30.13 in 10.0 mi WSW 3.5 mph - N/A   Clear
7:53 AM 50.0 °F - 32.0 °F 50% 30.14 in 10.0 mi Calm Calm - N/A   Clear
8:53 AM 57.9 °F - 28.9 °F 33% 30.15 in 10.0 mi Calm Calm - N/A   Clear
9:53 AM 64.9 °F - 32.0 °F 29% 30.20 in 10.0 mi WSW 4.6 mph - N/A   Clear
10:53 AM 71.1 °F - 26.1 °F 19% 30.16 in 10.0 mi North 5.8 mph - N/A   Clear
11:53 AM 73.0 °F - 25.0 °F 17% 30.13 in 10.0 mi North 5.8 mph - N/A   Clear
12:53 PM 75.0 °F - 25.0 °F 16% 30.09 in 10.0 mi NNE 8.1 mph - N/A   Clear
1:53 PM 77.0 °F - 27.0 °F 16% 30.06 in 10.0 mi North 5.8 mph - N/A   Clear
2:53 PM 77.0 °F - 25.0 °F 15% 30.05 in 10.0 mi NNW 9.2 mph - N/A   Clear
3:53 PM 75.0 °F - 30.0 °F 19% 30.05 in 10.0 mi NW 6.9 mph - N/A   Clear
4:53 PM 73.0 °F - 30.0 °F 20% 30.04 in 10.0 mi NW 3.5 mph - N/A   Clear
5:53 PM 64.0 °F - 33.1 °F 31% 30.06 in 10.0 mi WNW 4.6 mph - N/A   Clear
6:53 PM 60.1 °F - 30.0 °F 32% 30.07 in 10.0 mi WNW 4.6 mph - N/A   Clear
7:53 PM 57.9 °F - 28.9 °F 33% 30.10 in 10.0 mi WNW 5.8 mph - N/A   Clear
8:53 PM 62.1 °F - 27.0 °F 26% 30.11 in 10.0 mi NNW 4.6 mph - N/A   Clear
9:53 PM 53.1 °F - 32.0 °F 45% 30.14 in 10.0 mi WNW 5.8 mph - N/A   Clear
10:53 PM 51.1 °F - 32.0 °F 48% 30.14 in 10.0 mi West 6.9 mph - N/A   Clear
11:53 PM 50.0 °F - 34.0 °F 54% 30.14 in 10.0 mi West 5.8 mph - N/A   Clear